TimeCST,TemperatureF,Dew PointF,Humidity,Sea Level PressureIn,VisibilityMPH,Wind Direction,Wind SpeedMPH,Gust SpeedMPH,PrecipitationIn,Events,Conditions,WindDirDegrees,DateUTC
12:53 AM,25.0,21.0,85,30.07,9.0,SSW,5.8,-,N/A,,Clear,210,2013-01-08 06:53:00
1:53 AM,21.9,19.0,89,30.07,9.0,SSW,5.8,-,N/A,,Clear,210,2013-01-08 07:53:00
2:53 AM,21.0,18.0,88,30.08,8.0,South,6.9,-,N/A,,Clear,190,2013-01-08 08:53:00
3:53 AM,23.0,19.9,88,30.07,8.0,South,6.9,-,N/A,,Clear,180,2013-01-08 09:53:00
4:53 AM,21.0,19.0,92,30.07,7.0,South,3.5,-,N/A,,Clear,190,2013-01-08 10:53:00
5:53 AM,21.0,18.0,88,30.07,7.0,South,6.9,-,N/A,,Clear,190,2013-01-08 11:53:00
6:53 AM,21.0,19.0,92,30.08,6.0,South,8.1,-,N/A,,Clear,180,2013-01-08 12:53:00
7:53 AM,21.9,19.9,92,30.09,6.0,South,6.9,-,N/A,,Clear,170,2013-01-08 13:53:00
8:53 AM,24.1,21.0,88,30.10,8.0,South,6.9,-,N/A,,Clear,190,2013-01-08 14:53:00
9:53 AM,26.1,21.9,84,30.09,8.0,South,8.1,-,N/A,,Clear,170,2013-01-08 15:53:00
10:53 AM,28.0,24.1,85,30.08,8.0,South,12.7,-,N/A,,Clear,170,2013-01-08 16:53:00
11:53 AM,30.9,26.1,82,30.05,9.0,South,11.5,-,N/A,,Clear,180,2013-01-08 17:53:00
12:53 PM,33.1,27.0,78,30.02,9.0,South,15.0,-,N/A,,Clear,170,2013-01-08 18:53:00
1:53 PM,34.0,28.9,82,30.01,9.0,South,12.7,-,N/A,,Clear,180,2013-01-08 19:53:00
2:53 PM,35.1,28.9,78,30.00,9.0,South,11.5,-,N/A,,Clear,180,2013-01-08 20:53:00
3:53 PM,35.1,28.9,78,29.97,9.0,SSE,16.1,-,N/A,,Clear,160,2013-01-08 21:53:00
4:53 PM,34.0,28.9,82,29.96,9.0,South,17.3,-,N/A,,Clear,170,2013-01-08 22:53:00
5:53 PM,34.0,28.0,79,29.96,9.0,South,11.5,-,N/A,,Scattered Clouds,190,2013-01-08 23:53:00
6:53 PM,36.0,28.9,76,29.98,10.0,SSW,19.6,-,N/A,,Mostly Cloudy,200,2013-01-09 00:53:00
7:53 PM,36.0,28.9,76,29.98,10.0,SSW,23.0,-,N/A,,Clear,200,2013-01-09 01:53:00
8:53 PM,35.1,28.9,78,29.98,10.0,SSW,20.7,-,N/A,,Scattered Clouds,200,2013-01-09 02:53:00
9:53 PM,36.0,28.9,76,29.96,10.0,SSW,18.4,-,N/A,,Clear,210,2013-01-09 03:53:00
10:53 PM,37.4,28.4,70,29.93,10.0,SW,19.6,-,N/A,,Clear,220,2013-01-09 04:53:00
11:53 PM,36.0,30.0,79,29.98,10.0,WSW,20.7,-,N/A,,Overcast,250,2013-01-09 05:53:00